Weather History for Cushing, OK

Change the Weather History Date:

Sunday, November 11, 2012

  Actual Average Record
Temperature  
Mean Temperature 49 °F -  
Max Temperature 68 °F 59 °F 83 °F (1949)
Min Temperature 30 °F 36 °F 18 °F (1950)
Degree Days  
Heating Degree Days 16    
Moisture  
Dew Point 42 °F    
Average Humidity 90    
Maximum Humidity 100    
Minimum Humidity 73    
Precipitation  
Precipitation 0.43 in - - ()
Sea Level Pressure  
Sea Level Pressure 29.99 in    
Wind  
Wind Speed 12 mph (NNW)    
Max Wind Speed 29 mph    
Max Gust Speed 36 mph    
Visibility 9 miles    
Events Rain    
Averages and records for this station are not official NWS values.
T = Trace of Precipitation, MM = Missing Value Source: NWS Daily Summary

Daily Weather History Graph

Daily Weather History Graph

Search for Another Location

Airport:

Trip Planner

Search our weather history database for the weather conditions in past years. The results will help you decide how hot, cold, wet, or windy it might be!

Date:

Astronomy

Nov. 11, 2012 Rise Set
Actual Time 6:59 AM CST 5:21 PM CST
Civil Twilight 6:32 AM CST 5:49 PM CST
Nautical Twilight 6:02 AM CST 6:19 PM CST
Astronomical Twilight 5:31 AM CST 6:50 PM CST
Moon 4:19 AM CST (11/11) 3:43 PM CST (11/11)
Length of Visible Light 11h 16m
Length of Day
10h 22m
Waning Crescent, 7% of the Moon is Illuminated
Nov 11
Waning Crescent
Nov 13
New
Nov 20
First Quarter
Nov 28
Full
Dec 6
Last Quarter

Hourly Weather History & Observations

Time (CST) Temp. Windchill Dew Point Humidity Pressure Visibility Wind Dir Wind Speed Gust Speed Precip Events Conditions
12:35 AM 68.0 °F - 59.0 °F 73% 29.71 in 10.0 mi South 17.3 mph 26.5 mph N/A   Clear
12:55 AM 68.0 °F - 59.0 °F 73% 29.71 in 10.0 mi South 18.4 mph 29.9 mph N/A   Scattered Clouds
1:15 AM 68.0 °F - 60.8 °F 78% 29.74 in 10.0 mi South 18.4 mph 27.6 mph N/A   Mostly Cloudy
1:35 AM 68.0 °F - 60.8 °F 78% 29.74 in 10.0 mi South 19.6 mph 25.3 mph N/A   Mostly Cloudy
1:55 AM 68.0 °F - 60.8 °F 78% 29.75 in 10.0 mi South 17.3 mph 25.3 mph N/A   Scattered Clouds
2:15 AM 68.0 °F - 60.8 °F 78% 29.74 in 10.0 mi South 12.7 mph 23.0 mph N/A   Mostly Cloudy
2:35 AM 68.0 °F - 60.8 °F 78% 29.72 in 10.0 mi SSE 10.4 mph 18.4 mph N/A   Mostly Cloudy
2:55 AM 68.0 °F - 60.8 °F 78% 29.71 in 10.0 mi South 12.7 mph 19.6 mph N/A   Scattered Clouds
3:15 AM 68.0 °F - 60.8 °F 78% 29.72 in 10.0 mi South 11.5 mph 17.3 mph N/A   Light Drizzle
3:35 AM 68.0 °F - 60.8 °F 78% 29.70 in 10.0 mi South 11.5 mph 18.4 mph N/A   Scattered Clouds
3:55 AM 68.0 °F - 60.8 °F 78% 29.70 in 10.0 mi South 17.3 mph 20.7 mph N/A Rain Rain
4:15 AM 64.4 °F - 62.6 °F 94% 29.71 in 10.0 mi South 11.5 mph 18.4 mph 0.01 in Rain Rain
4:35 AM 64.4 °F - 62.6 °F 94% 29.70 in 10.0 mi South 8.1 mph - 0.01 in Rain Light Rain
4:55 AM 60.8 °F - 57.2 °F 88% 29.71 in 5.0 mi NW 28.8 mph 35.7 mph 0.08 in Rain Heavy Rain
5:15 AM 51.8 °F - 51.8 °F 100% 29.75 in 7.0 mi NNW 18.4 mph 29.9 mph 0.05 in Rain Heavy Rain
6:15 AM 50.0 °F - 50.0 °F 100% 29.82 in - NNW 6.9 mph - 0.01 in   Unknown
6:35 AM 50.0 °F - 50.0 °F 100% 29.81 in 10.0 mi North 6.9 mph - 0.05 in Rain Light Rain
6:55 AM 50.0 °F - 50.0 °F 100% 29.80 in 7.0 mi North 5.8 mph - 0.08 in Rain Rain
7:35 AM 50.0 °F - 50.0 °F 100% 29.83 in 5.0 mi North 4.6 mph - 0.05 in Rain Heavy Rain
8:15 AM 50.0 °F - 50.0 °F 100% 29.88 in 7.0 mi Calm Calm - 0.02 in Rain Rain
8:35 AM 50.0 °F - 50.0 °F 100% 29.88 in 4.0 mi Calm Calm - 0.05 in Rain Rain
8:55 AM 48.2 °F - 48.2 °F 100% 29.89 in 7.0 mi NNW 6.9 mph - 0.07 in Rain Rain
9:35 AM 48.2 °F - 48.2 °F 100% 29.90 in 5.0 mi NNW 4.6 mph - 0.07 in Rain Rain
9:55 AM 46.4 °F 41.1 °F 46.4 °F 100% 29.92 in 7.0 mi NW 11.5 mph 16.1 mph 0.09 in Rain Rain
10:15 AM 44.6 °F 38.1 °F 44.6 °F 100% 29.93 in 10.0 mi NW 13.8 mph 17.3 mph N/A   Light Drizzle
10:35 AM 42.8 °F 36.6 °F 42.8 °F 100% 29.93 in 10.0 mi NNW 11.5 mph 17.3 mph 0.01 in Rain Light Rain
10:55 AM 42.8 °F 35.4 °F 42.8 °F 100% 29.95 in 10.0 mi NNW 15.0 mph - 0.01 in   Overcast
11:15 AM 41.0 °F 33.1 °F 41.0 °F 100% 29.96 in 10.0 mi NNW 15.0 mph 20.7 mph N/A   Overcast
11:35 AM 41.0 °F 32.8 °F 39.2 °F 93% 29.97 in 10.0 mi NNW 16.1 mph 21.9 mph N/A   Overcast
11:55 AM 39.2 °F 31.6 °F 37.4 °F 93% 29.98 in 10.0 mi NNW 12.7 mph - N/A   Overcast
12:15 PM 39.2 °F 33.0 °F 37.4 °F 93% 29.99 in 10.0 mi NNW 9.2 mph 19.6 mph N/A   Overcast
12:35 PM 41.0 °F 33.9 °F 37.4 °F 87% 29.99 in 10.0 mi NNW 12.7 mph - N/A   Overcast
12:55 PM 41.0 °F 33.9 °F 37.4 °F 87% 30.00 in 10.0 mi NNW 12.7 mph - N/A   Overcast
1:15 PM 41.0 °F 33.5 °F 39.2 °F 93% 30.00 in 10.0 mi NNW 13.8 mph - N/A   Overcast
1:35 PM 42.8 °F 35.4 °F 37.4 °F 81% 30.00 in 10.0 mi NNW 15.0 mph 20.7 mph N/A   Mostly Cloudy
1:55 PM 41.0 °F 33.9 °F 37.4 °F 87% 30.00 in 10.0 mi NW 12.7 mph 20.7 mph N/A   Mostly Cloudy
2:15 PM 41.0 °F 33.5 °F 35.6 °F 81% 30.02 in 10.0 mi NNW 13.8 mph 20.7 mph N/A   Overcast
2:35 PM 41.0 °F 33.5 °F 35.6 °F 81% 30.03 in 10.0 mi NNW 13.8 mph 18.4 mph N/A   Overcast
2:55 PM 41.0 °F 33.9 °F 35.6 °F 81% 30.04 in 10.0 mi NW 12.7 mph 20.7 mph N/A   Mostly Cloudy
3:15 PM 41.0 °F 33.9 °F 35.6 °F 81% 30.05 in 10.0 mi NNW 12.7 mph 19.6 mph N/A   Overcast
3:35 PM 41.0 °F 33.9 °F 35.6 °F 81% 30.06 in 10.0 mi NNW 12.7 mph 18.4 mph N/A   Mostly Cloudy
3:55 PM 39.2 °F 31.2 °F 33.8 °F 81% 30.07 in 10.0 mi NNW 13.8 mph - N/A   Scattered Clouds
4:15 PM 39.2 °F 33.0 °F 33.8 °F 81% 30.09 in 10.0 mi NW 9.2 mph 16.1 mph N/A   Scattered Clouds
4:35 PM 39.2 °F 33.0 °F 33.8 °F 81% 30.10 in 10.0 mi NW 9.2 mph - N/A   Scattered Clouds
4:55 PM 37.4 °F 29.8 °F 33.8 °F 87% 30.10 in 10.0 mi NNW 11.5 mph 16.1 mph N/A   Clear
5:15 PM 37.4 °F 29.8 °F 32.0 °F 81% 30.12 in 10.0 mi NNW 11.5 mph 16.1 mph N/A   Clear
5:35 PM 35.6 °F 29.9 °F 32.0 °F 87% 30.14 in 10.0 mi NNW 6.9 mph - N/A   Clear
5:55 PM 35.6 °F 29.2 °F 32.0 °F 87% 30.15 in 10.0 mi NNW 8.1 mph - N/A   Clear
6:15 PM 35.6 °F 29.2 °F 32.0 °F 87% 30.17 in 10.0 mi NNW 8.1 mph - N/A   Clear
6:35 PM 33.8 °F 27.7 °F 32.0 °F 93% 30.18 in 10.0 mi NNW 6.9 mph - N/A   Clear
6:55 PM 33.8 °F 30.8 °F 32.0 °F 93% 30.20 in 10.0 mi NNW 3.5 mph - N/A   Clear
7:15 PM 33.8 °F 30.8 °F 32.0 °F 93% 30.20 in 10.0 mi NNW 3.5 mph - N/A   Clear
7:35 PM 33.8 °F 29.6 °F 32.0 °F 93% 30.20 in 10.0 mi North 4.6 mph - N/A   Clear
7:55 PM 32.0 °F 28.7 °F 32.0 °F 100% 30.21 in 10.0 mi NNW 3.5 mph - N/A   Clear
8:15 PM 32.0 °F - 32.0 °F 100% 30.23 in 10.0 mi Calm Calm - N/A   Clear
8:35 PM 32.0 °F - 32.0 °F 100% 30.23 in 10.0 mi Calm Calm - N/A   Clear
8:55 PM 32.0 °F - 32.0 °F 100% 30.24 in 10.0 mi Calm Calm - N/A   Clear
9:15 PM 32.0 °F - 32.0 °F 100% 30.25 in 10.0 mi Calm Calm - N/A   Clear
9:35 PM 32.0 °F 26.4 °F 30.2 °F 93% 30.27 in 10.0 mi NNW 5.8 mph - N/A   Clear
9:55 PM 32.0 °F 27.5 °F 30.2 °F 93% 30.27 in 10.0 mi North 4.6 mph - N/A   Clear
10:15 PM 32.0 °F 28.7 °F 30.2 °F 93% 30.28 in 10.0 mi North 3.5 mph - N/A   Clear
10:35 PM 32.0 °F 27.5 °F 30.2 °F 93% 30.29 in 10.0 mi North 4.6 mph - N/A   Clear
10:55 PM 32.0 °F 28.7 °F 30.2 °F 93% 30.30 in 10.0 mi North 3.5 mph - N/A   Clear
11:15 PM 32.0 °F 28.7 °F 28.4 °F 87% 30.30 in 10.0 mi North 3.5 mph - N/A   Clear
11:35 PM 30.2 °F - 28.4 °F 93% 30.30 in 10.0 mi Calm Calm - N/A   Clear
11:55 PM 30.2 °F - 28.4 °F 93% 30.31 in 10.0 mi Calm Calm - N/A   Clear